Location: Dana
(41.8364°N, 106.7042°W)
Time: 13:49:42
(UTC+00:00)

Transit 2A - Pass Details

Date: 19 May 2026
Orbit: 595 x 948 km, 66.7° (Epoch: 8 June)

Event Time Altitude Azimuth Distance (km) Brightness Sun altitude
Rises 21:14:47 0° 197° (SSW) 3,593 9.8 54.7°
Reaches altitude 10° 21:17:24 10° 194° (SSW) 2,635 9.3 54.2°
Maximum altitude 21:23:28 62° 116° (ESE) 1,010 7.2 53.2°
Drops below altitude 10° 21:29:11 10° 37° (NE) 2,481 8.4 52.2°
Sets 21:31:34 0° 34° (NE) 3,368 9.0 51.8°
